EW9686 Weather Reports


time (UTC)temp
C
wind
direction
speed
KPH
gust
KPH
rain 1hr
cm
rain 24hr
cm
rain mn
cm
humidity
%
barometer
mb
20260505101519 15 225 3.2 12.9 0.00 0.00 0.00 82 1006.5
20260505100519 14 225 3.2 12.9 0.00 0.00 0.00 83 1006.5
20260505095519 14 225 4.8 12.9 0.00 0.00 0.00 83 1006.4
20260505094519 14 203 1.6 8.0 0.00 0.00 0.00 82 1006.4
20260505093539 14 225 3.2 11.3 0.00 0.00 0.00 82 1006.3
20260505092519 14 225 4.8 16.1 0.00 0.00 0.00 81 1006.3
20260505091519 15 225 3.2 11.3 0.00 0.00 0.00 80 1006.3
20260505090519 15 225 6.4 12.9 0.00 0.00 0.00 80 1006.4
20260505085519 15 203 6.4 19.3 0.00 0.00 0.00 80 1006.4
20260505084539 15 225 4.8 14.5 0.00 0.00 0.00 79 1006.3
20260505083519 15 225 8.0 19.3 0.00 0.00 0.00 79 1006.4
20260505082519 15 225 6.4 19.3 0.00 0.00 0.00 78 1006.3
20260505081519 15 180 4.8 14.5 0.00 0.00 0.00 78 1006.3
20260505080539 15 225 8.0 24.1 0.00 0.00 0.00 78 1006.3
20260505075519 15 225 6.4 16.1 0.00 0.00 0.00 78 1006.2
20260505074519 15 225 4.8 17.7 0.00 0.00 0.00 78 1006.2
20260505073520 15 225 8.0 17.7 0.00 0.00 0.00 77 1006.1
20260505072519 15 225 6.4 16.1 0.00 0.00 0.00 76 1006.1
20260505071539 15 225 6.4 16.1 0.00 0.00 0.00 75 1005.9
20260505070519 15 203 6.4 20.9 0.00 0.00 0.00 75 1005.8
20260505065519 15 225 4.8 16.1 0.00 0.00 0.00 74 1005.9
20260505064539 15 225 6.4 17.7 0.00 0.00 0.00 73 1005.9
20260505063520 15 225 6.4 14.5 0.00 0.00 0.00 73 1006.1
20260505062519 15 225 4.8 14.5 0.00 0.00 0.00 73 1006.1
20260505061559 15 225 4.8 12.9 0.00 0.00 0.00 72 1006.2
20260505060519 16 225 4.8 14.5 0.00 0.00 0.00 71 1006.2
20260505055519 16 225 6.4 17.7 0.00 0.00 0.00 70 1006.3
20260505054539 16 225 4.8 12.9 0.00 0.00 0.00 70 1006.3
20260505053519 15 225 6.4 12.9 0.00 0.00 0.00 70 1006.3
20260505052519 15 225 6.4 14.5 0.00 0.00 0.00 70 1006.3
20260505051519 15 225 4.8 16.1 0.00 0.00 0.00 70 1006.3
20260505050519 15 225 4.8 19.3 0.00 0.00 0.00 69 1006.3
20260505041520 15 225 3.2 11.3 0.00 0.00 0.00 69 1006.7
20260505040521 15 225 4.8 14.5 0.00 0.00 0.00 69 1006.8
20260505035519 15 225 3.2 12.9 0.00 0.00 0.00 70 1006.5
20260505034539 15 225 3.2 12.9 0.00 0.00 0.00 70 1006.7
20260505033600 14 203 3.2 9.7 0.00 0.00 0.00 71 1006.6
20260505032519 14 225 1.6 9.7 0.00 0.00 0.00 71 1006.8
20260505031519 14 0.0 8.0 0.00 0.00 0.00 71 1006.9
20260505030519 14 225 1.6 8.0 0.00 0.00 0.00 71 1007.0
20260505025519 14 0.0 6.4 0.00 0.00 0.00 71 1007.0
20260505024519 14 0.0 4.8 0.00 0.00 0.00 71 1007.0
20260505023519 14 0.0 3.2 0.00 0.00 0.00 70 1007.0
20260505022519 14 0.0 6.4 0.00 0.00 0.00 69 1007.1
20260505021520 15 0.0 3.2 0.00 0.00 0.00 68 1007.1
20260505020519 15 225 1.6 11.3 0.00 0.00 0.00 67 1007.1
20260505015519 15 203 1.6 8.0 0.00 0.00 0.00 66 1007.2
20260505014519 15 203 1.6 3.2 0.00 0.00 0.00 64 1007.1
20260505013519 15 0.0 3.2 0.00 0.00 0.00 63 1007.0
20260505012540 15 0.0 6.4 0.00 0.00 0.00 61 1006.9
20260505011519 16 225 1.6 4.8 0.00 0.00 0.00 60 1006.8
20260505010519 16 0.0 3.2 0.00 0.00 0.00 57 1006.6
20260505005519 16 0.0 3.2 0.00 0.00 0.00 56 1006.6
20260505004521 17 203 1.6 16.1 0.00 0.00 0.00 55 1006.5
20260505003519 17 225 1.6 9.7 0.00 0.00 0.00 54 1006.3
20260505002519 17 225 1.6 8.0 0.00 0.00 0.00 52 1006.3
20260505001519 18 225 3.2 9.7 0.00 0.00 0.00 51 1006.1
20260505000520 18 225 1.6 8.0 0.00 0.00 0.00 49 1005.9
20260504235520 20 225 3.2 14.5 0.00 0.00 0.00 44 1005.7
20260504234520 20 225 4.8 16.1 0.00 0.00 0.00 39 1005.6
20260504233519 21 225 3.2 12.9 0.00 0.00 0.00 37 1005.6
20260504232519 21 225 3.2 11.3 0.00 0.00 0.00 36 1005.5
20260504231519 21 225 6.4 14.5 0.00 0.00 0.00 35 1005.4
20260504230559 21 225 8.0 22.5 0.00 0.00 0.00 35 1005.4
20260504225519 21 225 6.4 16.1 0.00 0.00 0.00 35 1005.3
20260504224520 21 225 8.0 17.7 0.00 0.00 0.00 34 1005.3
20260504223519 22 248 9.7 24.1 0.00 0.00 0.00 34 1005.2
20260504222519 22 225 8.0 16.1 0.00 0.00 0.00 33 1005.2
20260504221519 22 248 8.0 22.5 0.00 0.00 0.00 32 1005.2
20260504220519 22 225 9.7 22.5 0.00 0.00 0.00 34 1005.4
20260504215519 22 225 11.3 29.0 0.00 0.00 0.00 32 1005.4
20260504214519 22 225 8.0 22.5 0.00 0.00 0.00 33 1005.3
20260504213520 22 225 8.0 22.5 0.00 0.00 0.00 33 1005.5
20260504212519 22 225 9.7 29.0 0.00 0.00 0.00 32 1005.6
20260504211539 22 225 9.7 25.7 0.00 0.00 0.00 33 1005.6
20260504210519 22 225 8.0 19.3 0.00 0.00 0.00 33 1005.5
20260504205519 22 225 9.7 19.3 0.00 0.00 0.00 33 1005.5
20260504204519 22 225 9.7 17.7 0.00 0.00 0.00 33 1005.6
20260504203519 22 225 8.0 17.7 0.00 0.00 0.00 33 1005.5
20260504202519 22 225 11.3 20.9 0.00 0.00 0.00 32 1005.5
20260504201519 22 225 9.7 22.5 0.00 0.00 0.00 33 1005.5
20260504200519 22 225 8.0 19.3 0.00 0.00 0.00 33 1005.7
20260504195519 22 225 12.9 29.0 0.00 0.00 0.00 33 1005.8
20260504194539 22 225 12.9 22.5 0.00 0.00 0.00 34 1006.0
20260504193519 21 225 11.3 25.7 0.00 0.00 0.00 33 1006.1
20260504192519 22 225 4.8 12.9 0.00 0.00 0.00 34 1006.2
20260504191519 21 225 9.7 17.7 0.00 0.00 0.00 34 1006.2
20260504190519 21 225 11.3 22.5 0.00 0.00 0.00 33 1006.5
20260504185519 21 248 11.3 24.1 0.00 0.00 0.00 33 1006.7
20260504184519 21 225 14.5 32.2 0.00 0.00 0.00 35 1006.9
20260504183519 21 225 12.9 29.0 0.00 0.00 0.00 34 1006.9
20260504182519 21 225 14.5 22.5 0.00 0.00 0.00 34 1007.1
20260504181519 21 225 9.7 20.9 0.00 0.00 0.00 35 1007.1
20260504180519 21 225 12.9 30.6 0.00 0.00 0.00 36 1007.3
20260504175519 20 225 9.7 25.7 0.00 0.00 0.00 36 1007.4
20260504174539 20 225 12.9 30.6 0.00 0.00 0.00 35 1007.5
20260504173600 20 225 11.3 24.1 0.00 0.00 0.00 35 1007.5
20260504172559 20 270 8.0 17.7 0.00 0.00 0.00 37 1007.8
20260504171600 20 225 12.9 24.1 0.00 0.00 0.00 36 1007.9
20260504170520 20 248 11.3 20.9 0.00 0.00 0.00 37 1007.9
20260504150519 17 225 6.4 16.1 0.00 0.00 0.00 46 1009.2
20260504140519 16 225 8.0 17.7 0.00 0.00 0.00 54 1009.5
20260504130539 14 225 11.3 22.5 0.00 0.00 0.00 58 1010.2
20260504110519 8 225 4.8 14.5 0.00 0.00 0.00 74 1010.8